Location: Usti nad Labem
(50.6670°N, 14.0330°E)
Time: 22:26:52
(UTC+01:00)

Envisat - Pass Details

Date: 05 December 2020
Orbit: 764 x 766 km, 98.1° (Epoch: 15 January)

Event Time Altitude Azimuth Distance (km) Brightness Sun altitude
Rises 18:28:12 0° 214° (SW) 3,223 6.9 -22.4°
Reaches altitude 10° 18:31:26 10° 236° (SW) 2,303 6.3 -22.9°
Maximum altitude 18:34:29 16° 273° (W) 1,931 6.0 -23.4°
Drops below altitude 10° 18:37:32 10° 310° (NW) 2,314 6.0 -23.9°
Sets 18:40:48 0° 332° (NNW) 3,246 6.5 -24.4°
